Location: Unspecified
(0.0000°N, 0.0000°E)
Time: 14:13:58
(UTC+00:00)

deb Briz - Pass Details

Date: 18 February 2026
Orbit: 1676 x 2329 km, 64.7° (Epoch: 4 March)

Event Time Altitude Azimuth Distance (km) Brightness Sun altitude
Rises 05:09:32 0° 1° (N) 5,279 ? -15.8°
Reaches altitude 10° 05:13:41 10° 13° (NNE) 4,188 ? -14.7°
Maximum altitude 05:21:57 27° 66° (ENE) 2,912 ? -12.7°
Drops below altitude 10° 05:29:43 10° 120° (ESE) 3,950 ? -10.8°
Sets 05:33:25 0° 132° (SE) 4,926 ? -9.9°
